Weather in Valea lui Mihai

Romania     47°30′58″N   22°08′06″E
temp.,
°C
wind,
m/s
gust,
m/s
humid.,
%
clouds,
%
prec.,
mm/h
press.,
hPa
HPBL,
m
17 april, sat
sat1700:00+2ssw411775 0.0 1021206
03:00+1ssw35795 0.0 102178
06:000s22849 0.0 102126
09:00+5ese22675 0.0 1020243
12:00+9e33565 0.0 10191150
15:00+12ene345082 0.0 10171552
18:00+12ne4454100 0.0 10161372
21:00+7nne4675100 0.0 1017104
18 april, sun
sun1800:00+5nne3680100 0.0 1017117
03:00+4ne3385100 0.0 101652
06:00+4ne3487100 0.0 101671
09:00+7ne3478100 0.0 1015240
12:00+12e3660100 0.0 10151204
15:00+11se5563100 0.1 10151240
18:00+10se3573100 0.1 10161016
21:00+7sw2594100 0.6 1017284
19 april, mon
mon1900:00+7sw2596100 0.6 1017336
03:00+6sw3596100 1.3 1017294
06:00+6wsw2497100 1.6 1016214
09:00+6wnw1194100 2.1 101690
12:00+7nne1190100 0.1 1015201
15:00+8n118498 0.1 1014398
18:00+10ne1174100 0.0 1012753
21:00+9nne2278100 0.0 101224
20 april, tue
tue2000:00+8wnw1184100 0.0 101117
03:00+7wnw2387100 0.0 101189
06:00+7w3591100 0.1 1010157
09:00+7wnw2492100 0.4 1011326
12:00+7wnw2490100 0.6 1011296
15:00+12wnw346789 1.1 1011934
18:00+12nnw3568100 0.9 1011475
21:00+8nw3375100 1.1 101228
21 april, wed
wed2100:00+7w2278100 0.0 101326
03:00+6sw3486100 0.0 101474
06:00+6sw3691100 0.0 1015149
09:00+8sw4784100 0.0 1016362
12:00+10sw457965 0.6 1017661
15:00+12ssw5672100 1.6 10171148
18:00+13sw556517 0.2 10171114
21:00+8s48884 0.3 1018137